Location: Asar Burnu
(36.5203°N, 30.5523°E)
Time: 10:02:05
(UTC+00:00)

Cosmos 1726 Rocket - Pass Details

Date: 04 August 2024
Orbit: 599 x 624 km, 82.5° (Epoch: 14 September)

Event Time Altitude Azimuth Distance (km) Brightness Sun altitude
Rises 18:23:16 0° 352° (N) 2,852 7.6 -15.4°
Reaches altitude 10° 18:25:29 10° 352° (N) 1,947 6.7 -15.8°
Maximum altitude 18:29:47 85° 267° (W) 608 3.5 -16.5°
Enters shadow 18:32:46 20° 177° (S) 1,415 5.0 -17.0°
